Time,TemperatureF,DewpointF,PressureIn,WindDirection,WindDirectionDegrees,WindSpeedMPH,WindSpeedGustMPH,Humidity,HourlyPrecipIn,Conditions,Clouds,dailyrainin,SolarRadiationWatts/m^2,SoftwareType,DateUTC
2013-02-01 00:02:00,42.0,25.0,-100.00,North,5,11.0,23.0,51,0.00,,,0.00,0.000000,,2013-02-01 06:02:00,
2013-02-01 00:32:00,40.0,23.0,-100.00,North,2,10.0,19.0,51,0.00,,,-99.99,0.000000,,2013-02-01 06:32:00,
2013-02-01 00:42:00,40.0,23.0,-100.00,North,2,10.0,19.0,51,0.00,,,-99.99,0.000000,,2013-02-01 06:42:00,
2013-02-01 00:52:00,40.0,23.0,-100.00,North,2,10.0,19.0,51,0.00,,,-99.99,0.000000,,2013-02-01 06:52:00,
2013-02-01 01:02:00,40.0,23.0,-100.00,North,2,10.0,19.0,51,0.00,,,-99.99,0.000000,,2013-02-01 07:02:00,
2013-02-01 01:32:00,37.0,24.0,-100.00,NNW,348,6.0,12.0,58,0.00,,,0.00,0.000000,,2013-02-01 07:32:00,
2013-02-01 01:42:00,37.0,24.0,-100.00,NNW,348,6.0,12.0,58,0.00,,,0.00,0.000000,,2013-02-01 07:42:00,
2013-02-01 01:52:00,37.0,24.0,-100.00,NNW,348,6.0,12.0,58,0.00,,,0.00,0.000000,,2013-02-01 07:52:00,
2013-02-01 02:01:00,37.0,24.0,-100.00,NNW,348,6.0,12.0,58,0.00,,,0.00,0.000000,,2013-02-01 08:01:00,
2013-02-01 02:32:00,35.0,22.0,-100.00,NNW,342,4.0,9.0,59,0.00,,,0.00,0.000000,,2013-02-01 08:32:00,
2013-02-01 02:42:00,35.0,22.0,-100.00,NNW,342,4.0,9.0,59,0.00,,,0.00,0.000000,,2013-02-01 08:42:00,
2013-02-01 02:52:00,35.0,22.0,-100.00,NNW,342,4.0,9.0,59,0.00,,,0.00,0.000000,,2013-02-01 08:52:00,
2013-02-01 03:01:00,35.0,22.0,-100.00,NNW,342,4.0,9.0,59,0.00,,,0.00,0.000000,,2013-02-01 09:01:00,
2013-02-01 03:32:00,33.0,23.0,-100.00,NNW,340,5.0,7.0,65,0.00,,,0.00,0.000000,,2013-02-01 09:32:00,
2013-02-01 03:42:00,33.0,23.0,-100.00,NNW,340,5.0,7.0,65,0.00,,,0.00,0.000000,,2013-02-01 09:42:00,
2013-02-01 03:52:00,33.0,23.0,-100.00,NNW,340,5.0,7.0,65,0.00,,,0.00,0.000000,,2013-02-01 09:52:00,
2013-02-01 04:01:00,33.0,23.0,-100.00,NNW,340,5.0,7.0,65,0.00,,,0.00,0.000000,,2013-02-01 10:01:00,
2013-02-01 04:32:00,31.0,22.0,-100.00,NNW,343,6.0,9.0,68,0.00,,,0.00,0.000000,,2013-02-01 10:32:00,
2013-02-01 04:43:00,31.0,22.0,-100.00,NNW,343,6.0,9.0,68,0.00,,,0.00,0.000000,,2013-02-01 10:43:00,
2013-02-01 04:53:00,31.0,22.0,-100.00,NNW,343,6.0,9.0,68,0.00,,,0.00,0.000000,,2013-02-01 10:53:00,
2013-02-01 05:02:00,31.0,22.0,-100.00,NNW,343,6.0,9.0,68,0.00,,,0.00,0.000000,,2013-02-01 11:02:00,
2013-02-01 05:32:00,31.0,21.0,-100.00,North,6,4.0,10.0,66,0.00,,,0.00,0.000000,,2013-02-01 11:32:00,
2013-02-01 05:42:00,31.0,21.0,-100.00,North,6,4.0,10.0,66,0.00,,,0.00,0.000000,,2013-02-01 11:42:00,
2013-02-01 05:53:00,31.0,21.0,-100.00,North,6,4.0,10.0,66,0.00,,,0.00,0.000000,,2013-02-01 11:53:00,
2013-02-01 06:02:00,31.0,21.0,-100.00,North,6,4.0,10.0,66,0.00,,,0.00,0.000000,,2013-02-01 12:02:00,
2013-02-01 06:32:00,30.0,20.0,-100.00,North,6,4.0,7.0,65,0.00,,,0.00,0.000000,,2013-02-01 12:32:00,
2013-02-01 06:42:00,30.0,20.0,-100.00,North,6,4.0,7.0,65,0.00,,,0.00,0.000000,,2013-02-01 12:42:00,
2013-02-01 06:52:00,30.0,20.0,-100.00,North,6,4.0,7.0,65,0.00,,,0.00,0.000000,,2013-02-01 12:52:00,
2013-02-01 07:02:00,30.0,20.0,-100.00,North,6,4.0,7.0,65,0.00,,,0.00,0.000000,,2013-02-01 13:02:00,
2013-02-01 07:33:00,29.0,19.0,-100.00,NE,41,3.0,6.0,66,0.00,,,0.00,0.000000,,2013-02-01 13:33:00,
2013-02-01 07:43:00,29.0,19.0,-100.00,NE,41,3.0,6.0,66,0.00,,,0.00,0.000000,,2013-02-01 13:43:00,
2013-02-01 07:53:00,29.0,19.0,-100.00,NE,41,3.0,6.0,66,0.00,,,0.00,0.000000,,2013-02-01 13:53:00,
2013-02-01 08:03:00,29.0,19.0,-100.00,NE,41,3.0,6.0,66,0.00,,,0.00,0.000000,,2013-02-01 14:03:00,
2013-02-01 08:32:00,31.0,22.0,-100.00,ENE,67,5.0,8.0,70,0.00,,,0.00,31.000000,,2013-02-01 14:32:00,
2013-02-01 08:42:00,31.0,22.0,-100.00,ENE,67,5.0,8.0,70,0.00,,,0.00,31.000000,,2013-02-01 14:42:00,
2013-02-01 08:53:00,31.0,22.0,-100.00,ENE,67,5.0,8.0,70,0.00,,,0.00,31.000000,,2013-02-01 14:53:00,
2013-02-01 09:02:00,31.0,22.0,-100.00,ENE,67,5.0,8.0,70,0.00,,,0.00,31.000000,,2013-02-01 15:02:00,
2013-02-01 09:33:00,36.0,22.0,-100.00,East,96,11.0,18.0,56,0.00,,,0.00,218.000000,,2013-02-01 15:33:00,
2013-02-01 09:42:00,36.0,22.0,-100.00,East,96,11.0,18.0,56,0.00,,,0.00,218.000000,,2013-02-01 15:42:00,
2013-02-01 09:52:00,36.0,22.0,-100.00,East,96,11.0,18.0,56,0.00,,,0.00,218.000000,,2013-02-01 15:52:00,
2013-02-01 10:03:00,36.0,22.0,-100.00,East,96,11.0,18.0,56,0.00,,,0.00,218.000000,,2013-02-01 16:03:00,
2013-02-01 10:33:00,39.0,22.0,-100.00,East,86,10.0,19.0,50,0.00,,,0.00,441.000000,,2013-02-01 16:33:00,
2013-02-01 10:43:00,39.0,22.0,-100.00,East,86,10.0,19.0,50,0.00,,,0.00,441.000000,,2013-02-01 16:43:00,
2013-02-01 10:52:00,39.0,22.0,-100.00,East,86,10.0,19.0,50,0.00,,,0.00,441.000000,,2013-02-01 16:52:00,
2013-02-01 11:02:00,39.0,22.0,-100.00,East,86,10.0,19.0,50,0.00,,,0.00,441.000000,,2013-02-01 17:02:00,
2013-02-01 11:32:00,43.0,24.0,-100.00,East,88,9.0,17.0,46,0.00,,,0.00,614.000000,,2013-02-01 17:32:00,
2013-02-01 11:42:00,43.0,24.0,-100.00,East,88,9.0,17.0,46,0.00,,,0.00,614.000000,,2013-02-01 17:42:00,
2013-02-01 11:53:00,43.0,24.0,-100.00,East,88,9.0,17.0,46,0.00,,,0.00,614.000000,,2013-02-01 17:53:00,
2013-02-01 12:03:00,43.0,24.0,-100.00,East,88,9.0,17.0,46,0.00,,,0.00,614.000000,,2013-02-01 18:03:00,
2013-02-01 12:32:00,45.0,22.0,-100.00,East,93,10.0,16.0,40,0.00,,,0.00,726.000000,,2013-02-01 18:32:00,
2013-02-01 12:42:00,45.0,22.0,-100.00,East,93,10.0,16.0,40,0.00,,,0.00,726.000000,,2013-02-01 18:42:00,
2013-02-01 12:53:00,45.0,22.0,-100.00,East,93,10.0,16.0,40,0.00,,,0.00,726.000000,,2013-02-01 18:53:00,
2013-02-01 13:02:00,45.0,22.0,-100.00,East,93,10.0,16.0,40,0.00,,,0.00,726.000000,,2013-02-01 19:02:00,
2013-02-01 13:32:00,48.0,24.0,-100.00,East,89,10.0,16.0,38,0.00,,,0.00,773.000000,,2013-02-01 19:32:00,
2013-02-01 13:42:00,48.0,24.0,-100.00,East,89,10.0,16.0,38,0.00,,,0.00,773.000000,,2013-02-01 19:42:00,
2013-02-01 13:52:00,48.0,24.0,-100.00,East,89,10.0,16.0,38,0.00,,,0.00,773.000000,,2013-02-01 19:52:00,
2013-02-01 14:02:00,48.0,24.0,-100.00,East,89,10.0,16.0,38,0.00,,,0.00,773.000000,,2013-02-01 20:02:00,
2013-02-01 14:32:00,50.0,21.0,-100.00,East,89,9.0,15.0,32,0.00,,,-99.99,731.000000,,2013-02-01 20:32:00,
2013-02-01 14:42:00,50.0,21.0,-100.00,East,89,9.0,15.0,32,0.00,,,-99.99,731.000000,,2013-02-01 20:42:00,
2013-02-01 14:52:00,50.0,21.0,-100.00,East,89,9.0,15.0,32,0.00,,,-99.99,731.000000,,2013-02-01 20:52:00,
2013-02-01 15:02:00,50.0,21.0,-100.00,East,89,9.0,15.0,32,0.00,,,-99.99,731.000000,,2013-02-01 21:02:00,
2013-02-01 15:32:00,51.0,21.0,-100.00,East,91,9.0,15.0,30,0.00,,,0.00,621.000000,,2013-02-01 21:32:00,
2013-02-01 15:42:00,51.0,21.0,-100.00,East,91,9.0,15.0,30,0.00,,,0.00,621.000000,,2013-02-01 21:42:00,
2013-02-01 15:52:00,51.0,21.0,-100.00,East,91,9.0,15.0,30,0.00,,,0.00,621.000000,,2013-02-01 21:52:00,
2013-02-01 16:02:00,51.0,21.0,-100.00,East,91,9.0,15.0,30,0.00,,,0.00,621.000000,,2013-02-01 22:02:00,
2013-02-01 16:32:00,53.0,22.0,-100.00,ESE,111,9.0,14.0,29,0.00,,,0.00,447.000000,,2013-02-01 22:32:00,
2013-02-01 16:42:00,53.0,22.0,-100.00,ESE,111,9.0,14.0,29,0.00,,,0.00,447.000000,,2013-02-01 22:42:00,
2013-02-01 16:52:00,53.0,22.0,-100.00,ESE,111,9.0,14.0,29,0.00,,,0.00,447.000000,,2013-02-01 22:52:00,
2013-02-01 17:01:00,53.0,22.0,-100.00,ESE,111,9.0,14.0,29,0.00,,,0.00,447.000000,,2013-02-01 23:01:00,
2013-02-01 17:32:00,51.0,20.0,-100.00,ESE,123,9.0,15.0,29,0.00,,,0.00,185.000000,,2013-02-01 23:32:00,
2013-02-01 17:42:00,51.0,20.0,-100.00,ESE,123,9.0,15.0,29,0.00,,,0.00,185.000000,,2013-02-01 23:42:00,
2013-02-01 17:52:00,51.0,20.0,-100.00,ESE,123,9.0,15.0,29,0.00,,,0.00,185.000000,,2013-02-01 23:52:00,
2013-02-01 18:02:00,51.0,20.0,-100.00,ESE,123,9.0,15.0,29,0.00,,,0.00,185.000000,,2013-02-02 00:02:00,
2013-02-01 18:32:00,47.0,20.0,-100.00,ESE,103,6.0,13.0,34,0.00,,,0.00,11.000000,,2013-02-02 00:32:00,
2013-02-01 18:42:00,47.0,20.0,-100.00,ESE,103,6.0,13.0,34,0.00,,,0.00,11.000000,,2013-02-02 00:42:00,
2013-02-01 18:52:00,47.0,20.0,-100.00,ESE,103,6.0,13.0,34,0.00,,,0.00,11.000000,,2013-02-02 00:52:00,
2013-02-01 19:02:00,47.0,20.0,-100.00,ESE,103,6.0,13.0,34,0.00,,,0.00,11.000000,,2013-02-02 01:02:00,
2013-02-01 19:32:00,45.0,23.0,-100.00,East,95,6.0,9.0,41,0.00,,,-99.99,0.000000,,2013-02-02 01:32:00,
2013-02-01 19:42:00,45.0,23.0,-100.00,East,95,6.0,9.0,41,0.00,,,-99.99,0.000000,,2013-02-02 01:42:00,
2013-02-01 19:52:00,45.0,23.0,-100.00,East,95,6.0,9.0,41,0.00,,,-99.99,0.000000,,2013-02-02 01:52:00,
2013-02-01 20:01:00,45.0,23.0,-100.00,East,95,6.0,9.0,41,0.00,,,-99.99,0.000000,,2013-02-02 02:01:00,
2013-02-01 20:32:00,43.0,22.0,-100.00,East,86,6.0,9.0,43,0.00,,,0.00,0.000000,,2013-02-02 02:32:00,
2013-02-01 20:42:00,43.0,22.0,-100.00,East,86,6.0,9.0,43,0.00,,,0.00,0.000000,,2013-02-02 02:42:00,
2013-02-01 20:52:00,43.0,22.0,-100.00,East,86,6.0,9.0,43,0.00,,,0.00,0.000000,,2013-02-02 02:52:00,
2013-02-01 21:02:00,43.0,22.0,-100.00,East,86,6.0,9.0,43,0.00,,,0.00,0.000000,,2013-02-02 03:02:00,
2013-02-01 21:32:00,41.0,23.0,-100.00,East,81,5.0,9.0,49,0.00,,,0.00,0.000000,,2013-02-02 03:32:00,
2013-02-01 21:42:00,41.0,23.0,-100.00,East,81,5.0,9.0,49,0.00,,,0.00,0.000000,,2013-02-02 03:42:00,
2013-02-01 21:52:00,41.0,23.0,-100.00,East,81,5.0,9.0,49,0.00,,,0.00,0.000000,,2013-02-02 03:52:00,
2013-02-01 22:01:00,41.0,23.0,-100.00,East,81,5.0,9.0,49,0.00,,,0.00,0.000000,,2013-02-02 04:01:00,
2013-02-01 22:32:00,40.0,24.0,-100.00,East,94,7.0,10.0,52,0.00,,,0.00,0.000000,,2013-02-02 04:32:00,
2013-02-01 22:42:00,40.0,24.0,-100.00,East,94,7.0,10.0,52,0.00,,,0.00,0.000000,,2013-02-02 04:42:00,
2013-02-01 22:52:00,40.0,24.0,-100.00,East,94,7.0,10.0,52,0.00,,,0.00,0.000000,,2013-02-02 04:52:00,
2013-02-01 23:03:00,40.0,24.0,-100.00,East,94,7.0,10.0,52,0.00,,,0.00,0.000000,,2013-02-02 05:03:00,
2013-02-01 23:33:00,39.0,24.0,-100.00,East,100,7.0,10.0,54,0.00,,,0.00,0.000000,,2013-02-02 05:33:00,
2013-02-01 23:42:00,39.0,24.0,-100.00,East,100,7.0,10.0,54,0.00,,,0.00,0.000000,,2013-02-02 05:42:00,
2013-02-01 23:52:00,39.0,24.0,-100.00,East,100,7.0,10.0,54,0.00,,,0.00,0.000000,,2013-02-02 05:52:00,